This demonstration page uses our WeatherBlox Daily Observations layout. Learn more.

Left ArrowRight Arrow

Hourly Observations for July 19, 2017

Temp ( °F °C ) Dew Point ( °F °C ) Humidity (%) Winds ( mph kmh ) Pressure ( in mb ) Visibility ( mi km ) Precip ( " mm )
12:53 am 00:53 Clear 71 21.7 46 7.8 41 41 N 5 7 29.93 1013 10 16 0.00 0.00
1:53 am 01:53 Clear 69 20.6 44 6.7 41 41 NNW 3 6 29.93 1014 10 16 0.00 0.00
2:53 am 02:53 Clear 68 20 42 5.6 39 39 NNW 3 6 29.93 1014 10 16 0.00 0.00
3:53 am 03:53 Clear 68 20 44 6.7 42 42 NNW 3 6 29.94 1014 10 16 0.00 0.00
4:53 am 04:53 Clear 64 17.8 46 7.8 52 52 NNW 3 6 29.94 1014 10 16 0.00 0.00
5:53 am 05:53 Clear 64 17.8 46 7.8 52 52 NNW 5 7 29.94 1014 10 16 0.00 0.00
6:53 am 06:53 Sunny 68 20 45 7.2 44 44 N 6 9 29.95 1014 10 16 0.00 0.00
7:53 am 07:53 Sunny 72 22.2 44 6.7 37 37 N 6 9 29.96 1014 10 16 0.00 0.00
8:53 am 08:53 Sunny 79 26.1 41 5 26 26 N 3 6 29.95 1014 10 16 0.00 0.00
9:53 am 09:53 Sunny 83 28.3 41 5 23 23 NW 5 7 29.94 1014 10 16 0.00 0.00
10:53 am 10:53 Sunny 87 30.6 41 5 20 20 ESE 3 6 29.93 1014 10 16 0.00 0.00
11:53 am 11:53 Sunny 91 32.8 38 3.3 15 15 SW 6 9 29.92 1013 10 16 0.00 0.00
12:53 pm 12:53 Sunny 94 34.4 29 -1.7 10 10 SSW 7 11 29.91 1013 10 16 0.00 0.00
1:53 pm 13:53 Sunny 96 35.6 35 1.7 12 12 N 3 6 29.89 1012 10 16 0.00 0.00
2:53 pm 14:53 Sunny 97 36.1 30 -1.1 9 9 S 9 15 29.87 1012 10 16 0.00 0.00
3:53 pm 15:53 Sunny 98 36.7 32 0 10 10 S 10 17 29.85 1011 10 16 0.00 0.00
4:53 pm 16:53 Sunny 98 36.7 32 0 10 10 ESE 7 11 29.84 1011 10 16 0.00 0.00
5:53 pm 17:53 Sunny 98 36.7 35 1.7 11 11 SSE 10 17 29.83 1010 10 16 0.00 0.00
6:53 pm 18:53 Sunny 96 35.6 36 2.2 12 12 SSE 14 22 29.82 1010 10 16 0.00 0.00
7:53 pm 19:53 Sunny 91 32.8 44 6.7 20 20 SSE 9 15 29.83 1010 10 16 0.00 0.00
8:53 pm 20:53 Clear 86 30 43 6.1 22 22 S 6 9 29.84 1011 10 16 0.00 0.00
9:53 pm 21:53 Clear 82 27.8 44 6.7 26 26 Calm 29.87 1011 10 16 0.00 0.00
10:53 pm 22:53 Clear 79 26.1 45 7.2 30 30 E 5 7 29.88 1012 10 16 0.00 0.00
11:53 pm 23:53 Clear 79 26.1 44 6.7 29 29 N 5 7 29.89 1012 10 16 0.00 0.00

Powered by AerisWeather